Starlink 5262

operational
NORAD ID: 54207 Int'l Des: 2022-141 Owner: SPXS Country: US Constellation: starlink
LEOCIRCULAR

关于 Starlink 5262

正在加载描述...

实时位置

正在加载3D地球...

即将过境

高度历史

Altitude vs Time

uPlot chart will show altitude changes over time

两行轨道根数

1 54207U 22141BC 26062.13341100 -.00001909 00000-0 -10187-3 0 9998
2 54207 53.2195 23.1605 0001215 78.4002 281.7127 15.08840241185018
Epoch: Mar 3, 2026 • Age: 27 hours

当前状态

高度 551.5 km
速度 7.59 km/s
星下点 -35.25°S, 142.47°E
发射日期 Oct 28, 2022
运行时间 3.3 years
类型 internet

技术详情

分类 Payload
质量 305.00 kg
干质量 290.00 kg
总质量 305.00 kg
长度 0.20 m
直径 2.80 m
跨度 9.00 m
形状 Box + pan
制造商 SPXS
平台类型 Starlink
阶段状态 In Orbit
所有者/国家 SPXS/US

大型星座

Loading constellations...